DW1458 Foley AL US current weather conditions

sailwx.info

Last reported at 2020-Jan-25 11:00 UTC.
Time now 2020-Jan-25 11:37 UTC

Location: N 30°24' W 087°40'.
View on Google Maps.

See reports from other nearby stations

  
Tides and Currents Weather Stations Pressure Air Temp Water Temp Dewpoint Dewpoint Depression Visibility Wind Speed Wind Dir Waves Ship Positions
date/time (UTC)wind fromknots sea level pressurealtimeterstation pressurevisibilityair tempwater tempwave heightnotes
2020-Jan-25 11:00
2020-Jan-25 10:47
2020-Jan-25 10:30
2020-Jan-25 10:17
2020-Jan-25 10:00
2020-Jan-25 09:47
2020-Jan-25 09:30
2020-Jan-25 09:16
2020-Jan-25 08:46
2020-Jan-25 08:16 006 0 gusting 3 5.6
2020-Jan-25 07:46 009 6.1
2020-Jan-25 07:32 360 6.1
2020-Jan-25 07:15 326 6.1
2020-Jan-25 07:03 336 6.7
2020-Jan-25 06:45 321 7.2
2020-Jan-25 06:33 330 0 gusting 3 7.2
2020-Jan-25 06:16 302 6.7
2020-Jan-25 06:02 314 6.7
2020-Jan-25 05:46 274 6.7
2020-Jan-25 05:32 311 6.7
2020-Jan-25 05:15 294 6.1
2020-Jan-25 05:02 283 5.6
2020-Jan-25 04:45 281 5.6
2020-Jan-25 04:31 280 5.6
2020-Jan-25 04:15 280 5.6
2020-Jan-25 04:02 280 6.1
2020-Jan-25 03:47 280 6.1
2020-Jan-25 03:16 280 6.7
2020-Jan-25 02:45 281 6.1
2020-Jan-25 02:31 280 6.7
2020-Jan-25 02:15 280 7.8
2020-Jan-25 02:01 280 8.3
2020-Jan-25 01:45 280 8.3
2020-Jan-25 01:31 280 8.9
2020-Jan-25 01:15 280 8.9
2020-Jan-25 01:02 280 9.4
2020-Jan-25 00:45 280 10.0
2020-Jan-25 00:30 280 10.6
2020-Jan-25 00:01 290 11.1
2020-Jan-24 23:45 333 11.7
2020-Jan-24 23:31 122 11.7
2020-Jan-24 23:15 093 12.2
2020-Jan-24 23:01 253 12.8
2020-Jan-24 22:45 293 13.3
2020-Jan-24 22:33 238 0 gusting 4 13.9
2020-Jan-24 22:15 255 13.9
2020-Jan-24 22:02 294 14.4
2020-Jan-24 21:45 257 15.6
2020-Jan-24 21:31 314 0 gusting 7 16.1
2020-Jan-24 21:02 341 3 gusting 6 16.7
2020-Jan-24 20:31 278 4 gusting 10 16.7
2020-Jan-24 20:01 293 4 gusting 8 16.7
2020-Jan-24 19:31 307 4 gusting 9 16.1
2020-Jan-24 19:03 307 3 gusting 11 16.1
2020-Jan-24 18:30 039 4 gusting 13 15.6
2020-Jan-24 18:18 297 4 gusting 13 15.0
2020-Jan-24 18:00 334 4 gusting 10 14.4
2020-Jan-24 17:47 319 4 gusting 12 14.4
2020-Jan-24 17:30 314 6 gusting 11 13.9
2020-Jan-24 17:17 323 4 gusting 7 13.3
2020-Jan-24 17:00 328 2 gusting 7 12.8
2020-Jan-24 16:46 293 2 gusting 7 12.2
2020-Jan-24 16:30 276 0 gusting 6 11.1
2020-Jan-24 16:18 307 1 gusting 6 11.1
2020-Jan-24 16:00 290 3 gusting 8 11.1
2020-Jan-24 15:46 302 5 gusting 7 11.7
2020-Jan-24 15:15 314 2 gusting 6 12.2
2020-Jan-24 15:01 311 1 gusting 6 12.2
2020-Jan-24 14:46 314 0 gusting 3 12.2
2020-Jan-24 14:31 331 12.2
2020-Jan-24 14:15
2020-Jan-24 14:03
2020-Jan-24 13:46
2020-Jan-24 13:33
2020-Jan-24 13:15
2020-Jan-24 13:02
2020-Jan-24 12:45
2020-Jan-24 12:32
2020-Jan-24 12:15
2020-Jan-24 12:03
2020-Jan-24 11:45
2020-Jan-24 11:31
2020-Jan-24 11:15
2020-Jan-24 11:01
2020-Jan-24 10:31
2020-Jan-24 10:15
2020-Jan-24 10:01
2020-Jan-24 09:45
2020-Jan-24 09:31
2020-Jan-24 09:15
2020-Jan-24 09:01
2020-Jan-24 08:32
2020-Jan-24 08:01 319 11.7
2020-Jan-24 07:31 319 11.7
2020-Jan-24 07:15 317 11.7
2020-Jan-24 07:01 319 11.7
2020-Jan-24 06:45 317 11.7
2020-Jan-24 06:31 319 11.7
2020-Jan-24 06:15 319 11.7
2020-Jan-24 06:00 319 11.7
2020-Jan-24 05:32 317 12.2
2020-Jan-24 05:15 357 12.8
2020-Jan-24 05:02 355 12.8
2020-Jan-24 04:45 357 12.8
2020-Jan-24 04:32 347 12.8
2020-Jan-24 04:15 120 12.2
2020-Jan-24 04:05 120 12.8
2020-Jan-24 03:45 120 12.8
2020-Jan-24 03:32 120 13.3
2020-Jan-24 03:16 122 13.3
2020-Jan-24 03:01 121 13.3
2020-Jan-24 02:46 120 13.3
2020-Jan-24 02:32 116 13.9
2020-Jan-24 02:16 126 13.3
2020-Jan-24 01:45 091 12.8
2020-Jan-24 01:30 030 12.8
2020-Jan-24 01:17 074 12.2
2020-Jan-24 01:00 086 12.2
2020-Jan-24 00:46 112 12.2
2020-Jan-24 00:31 110 12.2
2020-Jan-24 00:17 146 0 gusting 3 11.7
2020-Jan-24 00:00 136 11.7
2020-Jan-23 23:47 115 1 gusting 5 11.7
2020-Jan-23 23:30 123 11.7
2020-Jan-23 23:16 149 11.1
2020-Jan-23 23:00 110 1 gusting 6 11.1
2020-Jan-23 22:49 121 1 gusting 6 11.1
2020-Jan-23 22:30 115 2 gusting 5 11.1
2020-Jan-23 22:18 109 0 gusting 4 11.1
2020-Jan-23 22:00 095 0 gusting 6 11.1
2020-Jan-23 21:47 075 0 gusting 3 11.1
2020-Jan-23 21:30 061 2 gusting 6 11.1
2020-Jan-23 21:01 127 0 gusting 2 11.1
2020-Jan-23 20:30 142 11.1
2020-Jan-23 20:00 095 1 gusting 5 11.7
2020-Jan-23 19:30 146 12.2
2020-Jan-23 19:16 129 0 gusting 6 12.2
2020-Jan-23 19:00 111 0 gusting 6 12.2
2020-Jan-23 18:47 101 12.2
2020-Jan-23 18:30 351 12.2
2020-Jan-23 18:16 141 2 gusting 6 12.2
2020-Jan-23 18:00 071 0 gusting 7 12.2
2020-Jan-23 17:46 115 2 gusting 6 12.2
2020-Jan-23 17:30 122 0 gusting 7 12.2
2020-Jan-23 17:16 126 5 gusting 11 12.2
2020-Jan-23 17:00 115 2 gusting 10 12.8
2020-Jan-23 16:47 128 2 gusting 8 12.2
2020-Jan-23 16:31 061 1 gusting 7 12.2
2020-Jan-23 16:17 086 1 gusting 7 11.7
2020-Jan-23 16:00 121 2 gusting 8 11.7
2020-Jan-23 15:46 131 1 gusting 7 11.1
2020-Jan-23 15:30 278 1 gusting 6 11.1
2020-Jan-23 15:17 109 1 gusting 7 10.6
2020-Jan-23 15:01 115 0 gusting 5 10.6
2020-Jan-23 14:46 106 3 gusting 12 10.0
2020-Jan-23 14:30 139 10.0
2020-Jan-23 14:16 120 0 gusting 7 10.0
2020-Jan-23 14:00 115 10.0
2020-Jan-23 13:46
2020-Jan-23 13:30
2020-Jan-23 13:15
2020-Jan-23 13:00
2020-Jan-23 12:45
2020-Jan-23 12:32
2020-Jan-23 12:16
2020-Jan-23 12:03
2020-Jan-23 11:45
2020-Jan-23 11:32